DECAYED

CZ-6A DEB, 61800 (Decayed)

Orbit data source: Space-Track

CZ-6A DEB, 61800 was space debris in LEO originally from a launch on Tue, 06 Aug 2024 UTC launched from the Taiyaun Space Center, China (TSC). Debris objects in space refer to the collection of defunct objects orbiting the Earth. Examples of debris include non-operational satellites, rocket bodies, and fragments generated from explosions, collisions, or faulty payload assembly.

Not visible in the next 10 days
Identifier
61800, 2024-140ABQ
Orbit
Decayed
Country
Flag of CNCN / PRC
Related business
Manufacturer
SAST
Mission
Decayed spacecraft
Bus & Motor
Unknown
Mass
Unknown
Launch date (UTC)
2024-08-06 (2 years ago)
Launch vehicle
Unknown
Launch site
Taiyaun Space Center, China (TSC)
Object type
Payload
Rocket body
Debris
Shape & HBR
Unknown shape, 0.1 m
Radar Cross Section
Small (<0.1 m²)

Expand to show TLE details & history
Last TLE update: 9 months ago

TLE from 9 months ago
0 CZ-6A DEB
1 61800U 24140ABQ 25272.03407141  .01323326  00000-0  82287-2 0  9993
2 61800  88.9085 292.6636 0033021 277.1441  82.6079 15.73778659 56892
Epoch: 2025-09-29T00:49Z
TLE epoch observation values (Epoch: 2025-09-29T00:49:03.769Z)
Latitude
-0.00009°
Longitude
-87.64569°
Altitude
348.592 km
Speed
7.701 km/s
True Right ascension
19h 30m 39s
True Declination
0° 00' 00"
Sunlit
Object was in daylight at epoch
Visualization orbit readout
Latitude
Unknown
Longitude
Unknown
Altitude
Unknown
Speed
Unknown
Apparent Right ascension
Unknown
Apparent Declination
Unknown
Sunlit
N/A
Visualization observer readout
Local Sidereal Time
10:20:24
Azimuth
Unknown
Elevation
Unknown
Doppler factor
Unknown
Orbital elements
Apogee altitude
367.044 km
Perigee altitude
322.644 km
Semi-major axis
6,722.981 km
Eccentricity
0.0033
Inclination
88.9085°
RAAN
292.6636°
Arg. of periapsis
277.1441°
True anomaly
82.98334°
Mean anomaly
82.6079°
Eccentric anomaly
82.7956°
Mean motion
3.93732 °/min
Orbital period
91.43 mins
BSTAR
0.0082287
Loading maneuver chart data...
Computing Atmospheric mass density...
Loading historical data...
Loading historical data...
Loading historical data...
Loading historical data...
Loading historical data...
Loading historical data...
Loading historical data...

Documentation

Showing up to 5 results
|